Погода в Барабинске

Погода в Барабинске : погода сейчас, прогноз погоды и архив. Всё, что Вы хотите узнать о погоде в Барабинске!

Хотите узнать прогноз погоды в Барабинске? Тогда Вам сюда: Погода в Барабинске

Поиск расширенной информации на нашем сайте:

Другие новости

Новости СМИ2

Главная страница сайта

Новости сайта

03.07.2017

Напоминаем, что на нашем специализированном сайте Метеоцентр.Азия вы можете получить высокодетализированные автоматические прогнозы погоды по пунктам России, СНГ и мира в авиационном формате (включающие направление и скорость ветра, видимость, явления погоды, количество и форму облачности, нижнюю и верхнюю границу облачности).

Рекомендуем: Для клиентов Вешняков Компьютерная скорая помощь в тушино по филям.

Погода в Барабинске - сегодня

Время (UTC), дата Ветер
(°,м/с) 
Видим.   Явления Облачность Т
(°С)
Тd
(°С)
f(%) Тe
(°С)
Pmin
(гПа)
dP
(гПа)
Po
(мм)
O2
(г/м3)
Тmin Tmax R s Состояние
почвы
09 22.09.17 300 (СЗ) 20000 м    10/10 570 м кучево-дожд. 
[Cb calv]
+7.1 -0.3 59 +5  1015.7  -0.2  751  295           
12 22.09.17 310 (СЗ) 20000 м    10/10 660 м кучево-дожд. 
[Cb calv]
+5.8 -0.3 65 +4  1016.3  0.6  751  296    +8.6       
15 22.09.17 320 (СЗ) 20000 м    6/6 600 м 
[Sc]
+2.6 +0.4 85 +1  1017.2  0.7  752  300           
18 22.09.17 330 (СЗ) 20000 м    10/10 600 м 
[Sc]
+2 -1.1 80 -1  1017.3  0.1  752  301           
21 22.09.17 320 (СЗ) 10 км  слаб. ливневой снег  10/10 300 м кучево-дожд. 
[Cb calv]
-0 -1.5 90 -2  1017.6  0.2  752  303           
00 23.09.17 330 (СЗ) 4{10}  20000 м  {ливн. осадки}  8/8 600 м кучево-дожд. 
[Cb calv]
-0.2 -3.3 80 -3  1018.1  0.5  752  304  -0.6    0.8  равномерный
мокрый или
старый снег
100% 
03 23.09.17 320 (СЗ) 10 км  слаб. ливневой снег  10/10 300 м кучево-дожд. 
[Cb calv]
-0.1 -3.1 80 -3  1018.4  0.3  752  304  -0.9         
06 23.09.17 320 (СЗ) 10 км  слаб. ливневой снег  9/9 300 м кучево-дожд. 
[Cb calv]
+1.2 -1.4 83 -2  1018.1  -0.3  752  302           
09 23.09.17 320 (СЗ) 5{11}  10 км  слаб. ливневой снег  10/10 300 м кучево-дожд. 
[Cb calv]
+1 -1.3 85 -2  1018.6  0.5  753  302           
12 23.09.17 310 (СЗ) 4{10}  10 км  слаб. ливневой снег  10/10 300 м кучево-дожд. 
[Cb calv]
-0.1 -1.4 91 -3  1020.2  1.5  754  304    +1.5     
15 23.09.17 310 (СЗ) 5{10}  10 км  слаб. ливневой снег  10/10 600 м кучево-дожд. 
[Cb calv]
-0.4 -1.7 91 -3  1021.4  1.2  755  305           
18 23.09.17 310 (СЗ) 10 км  слаб. ливневой снег  10/10 300 м кучево-дожд. 
[Cb calv]
-0.3 -1.6 91 -3  1022.2  0.8  755  305           
21 23.09.17 300 (СЗ) 10 км  слаб. снег{ливн. осадки}  10/10 300 м 
[Frnb|Ns]
-0.3 -1.6 91 -2  1023.4  1.1  756  305           
00 24.09.17 310 (СЗ) 10 км  слаб. снег{ливн. осадки}  10/10 300 м 
[Frnb|Ns]
+0.1 -1.1 92 -2  1025  1.7  757  305  -0.4    равномерный
мокрый или
старый снег
100% 
03 24.09.17 310 (СЗ) 10 км  слаб. снег  10/10 300 м 
[Frnb|Ns]
+0.5 -0.5 93 -1  1027.1  2.1  759  305           
06 24.09.17 330 (СЗ) 20000 м  {снег}  10/10 600 м 
[Sc]
+1.9 -0.4 85 1028.8  1.8  760  304           
09 24.09.17 320 (СЗ) 20000 м    10/10 1000 м 
[Sc]
+3.1 -0.2 79 +1  1030.3  1.4  761  303           
12 24.09.17 010 (С) 20000 м    10/10 600 м кучево-дожд. 
[Cb calv]
+4 -0.2 74 +4  1031.9  1.7  763  303    +4.3     
15 24.09.17 300 (СЗ) 20000 м    9/9 600 м 
[Sc]
+3.5 -0.3 76 +3  1033.2  1.2  764  304           
18 24.09.17 320 (СЗ) 20000 м    6/6 600 м 
[Sc]
+2.5 -0.8 79 +3  1033.8  0.6  764  305           
21 24.09.17 330 (СЗ) 20000 м    8/6 600 м средняя 
[Sc|Ac trans]
+2.3 -1.2 78 +3  1033.8  764  305           
00 25.09.17 270 (З) 20000 м    9/9 600 м 
[Sc]
+1.3 -1.1 84 +2  1033.9  764  307  +1.3        мокрая 
03 25.09.17 290 (З) 20000 м    10/10 1050 м 
[Sc]
+2.1 -0.9 81 +3  1034.4  0.5  764  306  +1.1         
06 25.09.17 340 (С) 20000 м    9/9 750 м кучево-дожд. 
[Cb calv]
+4.3 -6.4 46 +4  1034.2  764  304           
09 25.09.17 280 (З) 20000 м    9/9 720 м кучево-дожд. 
[Cb calv]
+5.1 -5 48 +4  1033.8  -0.4  764  303           
Время (UTC), дата Ветер
(°,м/с) 
Видим.   Явления Облачность Т
(°С)
Тd
(°С)
f(%) Тe
(°С)
Pmin
(гПа)
dP
(гПа)
Po
(мм)
O2
(г/м3)
Тmin Tmax R s Состояние
почвы

Для получения пояснительной информации подведите курсор к названию столбца.

ПОГОДА в Барабинске - архив

Всё, что Вы хотите узнать о погоде в Барабинске - удобно и подробно!

Выберите нужную дату (начиная с 1 января 2015* года) и нажмите кнопку "Найти".
Будут отображены архивные сводки погоды по пункту Барабинск, начиная с указанной даты.


Отображать данные в формате CSV (для использования в таблицах Excel)


Внимание! Наш архив погоды предназначен исключительно для личного некоммерческого использования в познавательных целях. Если Вам необходимы официальные справки о состоянии погоды (для производственных, юридических, коммерческих и т.п. целей), обращайтесь в органы Росгидромета.

*Примечание: данная дата относится к архиву по метеостанциям СССР (Россия, СНГ, Балтия).
Архив по метеостанциям Зарубежной Европы и Азии (кроме Китая) хранится 10 дней, по другим регионам земного шара (Китай, Африка, Америка, Австралия, Океания) - 1 день.

Барабинск - район местоположения метеостанции


Название, широта, долгота, высота метеостанции:
Барабинск 55.3°ш. 78.4°д. 120 м над ур. моря [Российская Федерация]

Дополнительная информация

В oтличие oт бoльшинства пoгoдных сайтoв мы публикуем пoдрoбную метеoинфoрмацию в детальнoм прoфессиoнальнoм фoрмате.

Характеристики температуры и влажнoсти вoздуха измеряются на высoте 2 м в тени вдали oт зданий и деревьев.
Скoрoсть ветра измеряется на высoте 10 м (на урoвне рoста челoвека скoрoсть ветра ниже в 1.5-2 раза). Если метеoстанция нахoдится в гoрoде или в лесу, тo скoрoсть ветра занижена на 2-4 м/с пo сравнению с oткрытым местoм. Скoрoсть ветра над акватoриями крупных рек и oзёр, а также на вершинах хoлмoв на 2-5 м/с выше, чем в oбычных услoвиях.
Атмoсфернoе давление в разных тoчках местнoсти мoжет значительнo oтличаться oт давления на метеoстанции, в зависимoсти oт услoвий рельефа (при пoдъёме на 10 м давление пoнижается примернo на 1 мм рт.ст.).